Morrisville, VT

5:55 AM EDT on August 24, 2016 (GMT -0400)
Morrisville Stowe State

Weather History for KMVL - February, 2012

Change the Weather History Date:

Saturday, February 25, 2012

  Actual Average Record
Temperature  
Mean Temperature 26 °F 22 °F  
Max Temperature 33 °F 33 °F 48 °F (2002)
Min Temperature 18 °F 10 °F -11 °F (2003)
Degree Days  
Heating Degree Days 39 43  
Month to date heating degree days 991 1169  
Since 1 July heating degree days 4996 5831  
Moisture  
Dew Point 23 °F    
Average Humidity 83    
Maximum Humidity 92    
Minimum Humidity 73    
Precipitation  
Precipitation 0.02 in 0.06 in 0.74 in (2016)
Month to date precipitation 0.24 1.56  
Year to date precipitation 1.13 4.10  
Sea Level Pressure  
Sea Level Pressure 29.34 in    
Wind  
Wind Speed 7 mph (West)    
Max Wind Speed 20 mph    
Max Gust Speed 29 mph    
Visibility 9 miles    
Events Snow    
T = Trace of Precipitation, MM = Missing Value Source: NWS Daily Summary

Daily Weather History Graph

Daily Weather History Graph

Search for Another Location

Airport or City:

Trip Planner

Search our weather history database for the weather conditions in past years. The results will help you decide how hot, cold, wet, or windy it might be!

Date:

Astronomy

Feb. 25, 2012 Rise Set
Actual Time 6:35 AM EST 5:32 PM EST
Civil Twilight 6:06 AM EST 6:01 PM EST
Nautical Twilight 5:32 AM EST 6:35 PM EST
Astronomical Twilight 4:58 AM EST 7:09 PM EST
Moon 7:46 AM EST (2/25) 9:43 PM EST (2/25)
Length of Visible Light 11h 55m
Length of Day
10h 56m
Waxing Crescent, 13% of the Moon is Illuminated
Feb 25
Waxing Crescent
Feb 29
First Quarter
Mar 8
Full
Mar 14
Last Quarter
Mar 22
New

Hourly Weather History & Observations

Time (EST) Temp. Windchill Dew Point Humidity Pressure Visibility Wind Dir Wind Speed Gust Speed Precip Events Conditions
12:01 AM 32.0 °F - 30.2 °F 93% 29.17 in 10.0 mi Calm Calm - N/A   Overcast
12:29 AM 32.0 °F - 30.2 °F 93% 29.15 in 10.0 mi Calm Calm - N/A   Overcast
12:40 AM 32.0 °F - 30.2 °F 93% 29.14 in 9.0 mi Calm Calm - 0.00 in Snow Light Snow
12:54 AM 32.0 °F - 30.9 °F 96% 29.16 in 9.0 mi Calm Calm - 0.00 in   Overcast
1:54 AM 32.0 °F 28.7 °F 30.9 °F 96% 29.14 in 9.0 mi SSE 3.5 mph - 0.00 in Snow Light Snow
2:46 AM 32.0 °F - 30.2 °F 93% 29.10 in 9.0 mi Calm Calm - 0.00 in Snow Light Snow
2:54 AM 33.1 °F - 30.9 °F 92% 29.13 in 9.0 mi Calm Calm - 0.00 in Snow Light Snow
3:23 AM 32.0 °F - 30.2 °F 93% 29.09 in 9.0 mi Calm Calm - 0.00 in Snow Light Snow
4:22 AM 32.0 °F 26.4 °F 28.4 °F 87% 29.10 in 9.0 mi South 5.8 mph - 0.00 in Snow Light Snow
4:54 AM 32.0 °F 28.7 °F 28.0 °F 85% 29.13 in 9.0 mi Variable 3.5 mph - 0.00 in Snow Light Snow
5:18 AM 30.2 °F 25.4 °F 28.4 °F 93% 29.10 in 9.0 mi Variable 4.6 mph - 0.00 in Snow Light Snow
5:54 AM 30.9 °F 22.8 °F 28.0 °F 89% 29.14 in 9.0 mi WSW 9.2 mph - 0.01 in Snow Light Snow
6:47 AM 30.2 °F 20.2 °F 26.6 °F 86% 29.14 in 9.0 mi WSW 12.7 mph 23.0 mph 0.02 in Snow Light Snow
7:03 AM 30.2 °F 21.9 °F 26.6 °F 86% 29.14 in 9.0 mi WSW 9.2 mph 19.6 mph 0.00 in Snow Light Snow
7:54 AM 28.9 °F 23.9 °F 26.1 °F 89% 29.19 in 9.0 mi Variable 4.6 mph - 0.00 in Snow Light Snow
8:03 AM 28.4 °F 18.0 °F 26.6 °F 93% 29.17 in 9.0 mi SSW 12.7 mph 21.9 mph 0.01 in Snow Light Snow
8:17 AM 28.4 °F - 24.8 °F 86% 29.19 in 9.0 mi Calm Calm - 0.01 in Snow Light Snow
8:54 AM 28.0 °F 20.0 °F 25.0 °F 88% 29.22 in 9.0 mi SW 8.1 mph - 0.01 in Snow Light Snow
9:29 AM 28.4 °F 22.2 °F 24.8 °F 86% 29.21 in 9.0 mi Variable 5.8 mph - 0.00 in Snow Light Snow
9:54 AM 28.0 °F 20.8 °F 23.0 °F 81% 29.25 in 9.0 mi SW 6.9 mph 19.6 mph 0.00 in Snow Light Snow
10:54 AM 27.0 °F 18.0 °F 23.0 °F 85% 29.27 in 9.0 mi South 9.2 mph - 0.00 in Snow Light Snow
11:54 AM 27.0 °F 23.0 °F 23.0 °F 85% 29.31 in 9.0 mi Variable 3.5 mph - 0.00 in Snow Light Snow
12:45 PM 28.4 °F 24.6 °F 23.0 °F 80% 29.30 in 9.0 mi Variable 3.5 mph - 0.00 in Snow Light Snow
12:54 PM 27.0 °F 23.0 °F 23.0 °F 85% 29.33 in 9.0 mi Variable 3.5 mph - 0.00 in Snow Light Snow
1:54 PM 27.0 °F - 23.0 °F 85% 29.37 in 9.0 mi Calm Calm - 0.00 in Snow Light Snow
2:54 PM 26.1 °F 15.6 °F 19.9 °F 78% 29.42 in 9.0 mi NW 11.5 mph 18.4 mph 0.00 in Snow Light Snow
3:11 PM 24.8 °F 14.0 °F 19.4 °F 80% 29.41 in 9.0 mi NNW 11.5 mph 17.3 mph 0.00 in Snow Light Snow
3:54 PM 24.1 °F 13.7 °F 19.0 °F 81% 29.47 in 9.0 mi NW 10.4 mph - 0.00 in Snow Light Snow
4:14 PM 24.8 °F 16.1 °F 19.4 °F 80% 29.46 in 9.0 mi NW 8.1 mph - 0.00 in Snow Light Snow
5:54 PM 21.9 °F 9.2 °F 15.1 °F 75% 29.59 in 9.0 mi NW 13.8 mph 23.0 mph 0.00 in Snow Light Snow
6:54 PM 21.9 °F 11.7 °F 15.1 °F 75% 29.64 in 9.0 mi NW 9.2 mph - 0.00 in Snow Light Snow
7:54 PM 21.0 °F 16.2 °F 16.0 °F 81% 29.70 in 9.0 mi Variable 3.5 mph - 0.00 in Snow Light Snow
8:54 PM 21.0 °F 13.4 °F 15.1 °F 78% 29.76 in 9.0 mi Variable 5.8 mph - 0.00 in Snow Light Snow
9:54 PM 19.9 °F 14.9 °F 14.0 °F 78% 29.81 in 9.0 mi Variable 3.5 mph - 0.00 in Snow Light Snow
10:15 PM 19.4 °F 10.4 °F 12.2 °F 74% 29.79 in 9.0 mi Variable 6.9 mph - 0.00 in Snow Light Snow
10:54 PM 19.0 °F 6.8 °F 12.0 °F 74% 29.86 in 9.0 mi WNW 11.5 mph 20.7 mph 0.00 in Snow Light Snow
11:54 PM 18.0 °F 6.1 °F 10.9 °F 74% 29.90 in 9.0 mi WNW 10.4 mph 17.3 mph 0.00 in Snow Light Snow